| time (UTC) | temp C | wind direction | speed KPH | gust KPH | rain 1hr cm | rain 24hr cm | rain mn cm | humidity % | barometer mb |
| 20260508184544 | 17 | 217 | 11.3 | 27.4 | 0.00 | 0.00 | 0.00 | 48 | 1015.9 |
| 20260508183038 | 17 | 262 | 14.5 | 30.6 | 0.00 | 0.00 | 0.00 | 48 | 1016.0 |
| 20260508181536 | 17 | 215 | 16.1 | 32.2 | 0.00 | 0.00 | 0.00 | 45 | 1016.2 |
| 20260508180043 | 18 | 129 | 8.0 | 24.1 | 0.00 | 0.00 | 0.00 | 42 | 1016.4 |
| 20260508174553 | 17 | 269 | 9.7 | 29.0 | 0.00 | 0.00 | 0.00 | 42 | 1016.4 |
| 20260508173039 | 17 | 281 | 8.0 | 22.5 | 0.00 | 0.00 | 0.00 | 40 | 1016.5 |
| 20260508171537 | 17 | 115 | 3.2 | 22.5 | 0.00 | 0.00 | 0.00 | 38 | 1016.6 |
| 20260508170035 | 17 | 155 | 6.4 | 22.5 | 0.00 | 0.00 | 0.00 | 36 | 1016.9 |
| 20260508164542 | 15 | 23 | 9.7 | 20.9 | 0.00 | 0.00 | 0.00 | 39 | 1017.2 |
| 20260508163042 | 16 | 137 | 1.6 | 17.7 | 0.00 | 0.00 | 0.00 | 38 | 1017.3 |
| 20260508161540 | 16 | 235 | 1.6 | 17.7 | 0.00 | 0.00 | 0.00 | 38 | 1017.5 |
| 20260508160036 | 15 | 235 | 3.2 | 11.3 | 0.00 | 0.00 | 0.00 | 41 | 1017.7 |
| 20260508154539 | 16 | 240 | 6.4 | 16.1 | 0.00 | 0.00 | 0.00 | 38 | 1018.1 |
| 20260508153044 | 16 | 214 | 4.8 | 12.9 | 0.00 | 0.00 | 0.00 | 38 | 1017.9 |
| 20260508151542 | 15 | 203 | 6.4 | 19.3 | 0.00 | 0.00 | 0.00 | 40 | 1018.1 |
| 20260508150054 | 15 | 0 | 3.2 | 16.1 | 0.00 | 0.00 | 0.00 | 41 | 1018.0 |
| 20260508144538 | 15 | 221 | 8.0 | 16.1 | 0.00 | 0.00 | 0.00 | 40 | 1018.2 |
| 20260508143049 | 13 | 360 | 1.6 | 12.9 | 0.00 | 0.00 | 0.00 | 39 | 1018.2 |
| 20260508141535 | 13 | 360 | 1.6 | 6.4 | 0.00 | 0.00 | 0.00 | 50 | 1018.3 |
| 20260508140050 | 13 | 360 | 1.6 | 6.4 | 0.00 | 0.00 | 0.00 | 56 | 1018.2 |
| 20260508134542 | 11 | 360 | 3.2 | 8.0 | 0.00 | 0.00 | 0.00 | 61 | 1018.2 |
| 20260508133037 | 11 | 360 | 3.2 | 8.0 | 0.00 | 0.00 | 0.00 | 66 | 1018.3 |
| 20260508131543 | 10 | 360 | 3.2 | 9.7 | 0.00 | 0.00 | 0.00 | 72 | 1018.3 |
| 20260508130043 | 9 | 360 | 4.8 | 12.9 | 0.00 | 0.00 | 0.00 | 75 | 1018.2 |
| 20260508124535 | 8 | 360 | 3.2 | 14.5 | 0.00 | 0.00 | 0.00 | 78 | 1018.3 |
| 20260508123040 | 8 | 360 | 4.8 | 9.7 | 0.00 | 0.00 | 0.00 | 82 | 1018.1 |
| 20260508121539 | 7 | 360 | 3.2 | 8.0 | 0.00 | 0.00 | 0.00 | 88 | 1018.0 |
| 20260508120045 | 6 | 0 | 0.0 | 0.0 | 0.00 | 0.00 | 0.00 | 93 | 1017.9 |
| 20260508114542 | 5 | 0 | 0.0 | 0.0 | 0.00 | 0.10 | 0.00 | 97 | 1017.6 |
| 20260508113042 | 3 | 0 | 0.0 | 0.0 | 0.00 | 0.10 | 0.00 | 96 | 1017.5 |
| 20260508111541 | 3 | 0 | 0.0 | 0.0 | 0.00 | 0.10 | 0.00 | 94 | 1017.0 |
| 20260508110035 | 3 | 0 | 0.0 | 0.0 | 0.00 | 0.10 | 0.00 | 94 | 1016.8 |
| 20260508104537 | 3 | 0 | 0.0 | 0.0 | 0.00 | 0.15 | 0.00 | 93 | 1016.5 |
| 20260508103044 | 3 | 0 | 0.0 | 0.0 | 0.00 | 0.15 | 0.00 | 93 | 1016.3 |
| 20260508101542 | 4 | 0 | 0.0 | 0.0 | 0.00 | 0.15 | 0.00 | 93 | 1015.9 |
| 20260508100041 | 4 | 0 | 0.0 | 3.2 | 0.00 | 0.15 | 0.00 | 93 | 1015.8 |
| 20260508094537 | 5 | 360 | 1.6 | 4.8 | 0.00 | 0.15 | 0.00 | 93 | 1015.7 |
| 20260508093038 | 5 | 0 | 0.0 | 4.8 | 0.00 | 0.15 | 0.00 | 93 | 1015.7 |
| 20260508091536 | 5 | 360 | 0.0 | 4.8 | 0.00 | 0.15 | 0.00 | 92 | 1015.6 |
| 20260508090045 | 6 | 0 | 0.0 | 3.2 | 0.00 | 0.15 | 0.00 | 91 | 1015.6 |
| 20260508084546 | 6 | 0 | 0.0 | 6.4 | 0.00 | 0.15 | 0.00 | 91 | 1015.4 |
| 20260508083051 | 6 | 360 | 3.2 | 8.0 | 0.00 | 0.15 | 0.00 | 89 | 1015.4 |
| 20260508081546 | 7 | 360 | 1.6 | 8.0 | 0.00 | 0.15 | 0.00 | 87 | 1015.4 |
| 20260508080053 | 7 | 0 | 4.8 | 14.5 | 0.00 | 0.15 | 0.00 | 86 | 1015.3 |
| 20260508074537 | 8 | 360 | 6.4 | 17.7 | 0.00 | 0.15 | 0.00 | 84 | 1015.2 |
| 20260508073040 | 8 | 360 | 6.4 | 14.5 | 0.00 | 0.15 | 0.00 | 84 | 1015.0 |
| 20260508071542 | 8 | 360 | 6.4 | 16.1 | 0.00 | 0.15 | 0.00 | 83 | 1014.9 |
| 20260508070051 | 8 | 360 | 4.8 | 16.1 | 0.00 | 0.15 | 0.00 | 84 | 1014.8 |
| 20260508064548 | 8 | 360 | 8.0 | 20.9 | 0.00 | 0.18 | 0.00 | 84 | 1014.6 |
| 20260508063043 | 8 | 360 | 11.3 | 22.5 | 0.00 | 0.18 | 0.00 | 85 | 1014.6 |
| 20260508061542 | 8 | 360 | 8.0 | 20.9 | 0.00 | 0.18 | 0.00 | 85 | 1014.7 |
| 20260508060040 | 9 | 360 | 11.3 | 24.1 | 0.00 | 0.18 | 0.00 | 85 | 1014.7 |
| 20260508054545 | 9 | 360 | 12.9 | 22.5 | 0.00 | 0.18 | 0.00 | 85 | 1014.9 |
| 20260508053040 | 9 | 360 | 11.3 | 17.7 | 0.00 | 0.18 | 0.00 | 85 | 1014.8 |
| 20260508051539 | 9 | 360 | 16.1 | 27.4 | 0.00 | 0.18 | 0.00 | 85 | 1014.9 |
| 20260508050111 | 8 | 360 | 11.3 | 20.9 | 0.00 | 0.18 | 0.00 | 86 | 1015.1 |
| 20260508044543 | 8 | 360 | 9.7 | 20.9 | 0.00 | 0.20 | 0.00 | 89 | 1014.9 |
| 20260508043037 | 8 | 360 | 9.7 | 22.5 | 0.00 | 0.20 | 0.00 | 90 | 1014.9 |
| 20260508041535 | 8 | 360 | 11.3 | 19.3 | 0.00 | 0.20 | 0.00 | 92 | 1014.9 |
| 20260508040052 | 7 | 360 | 9.7 | 14.5 | 0.00 | 0.20 | 0.00 | 93 | 1015.3 |
| 20260508034545 | 7 | 360 | 4.8 | 9.7 | 0.00 | 0.23 | 0.20 | 93 | 1015.4 |
| 20260508033037 | 7 | 360 | 1.6 | 8.0 | 0.00 | 0.23 | 0.20 | 93 | 1015.5 |
| 20260508031536 | 7 | 360 | 0.0 | 4.8 | 0.00 | 0.23 | 0.20 | 92 | 1015.5 |
| 20260508030036 | 7 | 360 | 1.6 | 4.8 | 0.00 | 0.23 | 0.20 | 91 | 1015.4 |
| 20260508024542 | 8 | 360 | 1.6 | 4.8 | 0.00 | 0.25 | 0.20 | 89 | 1015.3 |
| 20260508023043 | 8 | 360 | 3.2 | 8.0 | 0.00 | 0.25 | 0.20 | 88 | 1015.0 |
| 20260508021541 | 8 | 360 | 6.4 | 14.5 | 0.00 | 0.25 | 0.20 | 88 | 1014.9 |
| 20260508020037 | 8 | 360 | 4.8 | 12.9 | 0.00 | 0.25 | 0.20 | 88 | 1014.6 |
| 20260508014536 | 9 | 360 | 6.4 | 14.5 | 0.00 | 0.33 | 0.20 | 87 | 1014.3 |
| 20260508013042 | 9 | 360 | 8.0 | 12.9 | 0.00 | 0.33 | 0.20 | 85 | 1014.2 |
| 20260508011542 | 10 | 360 | 6.4 | 19.3 | 0.00 | 0.33 | 0.20 | 83 | 1013.9 |
| 20260508010040 | 10 | 360 | 3.2 | 12.9 | 0.00 | 0.33 | 0.20 | 82 | 1013.7 |
| 20260508004551 | 10 | 360 | 3.2 | 8.0 | 0.00 | 0.36 | 0.20 | 82 | 1013.6 |
| 20260508003048 | 10 | 360 | 3.2 | 8.0 | 0.00 | 0.36 | 0.20 | 81 | 1013.6 |
| 20260508001542 | 10 | 360 | 3.2 | 12.9 | 0.00 | 0.36 | 0.20 | 80 | 1013.6 |
| 20260508000041 | 11 | 360 | 6.4 | 17.7 | 0.00 | 0.36 | 0.20 | 79 | 1013.4 |
| 20260507234547 | 11 | 360 | 4.8 | 16.1 | 0.00 | 0.43 | 0.20 | 79 | 1013.5 |
| 20260507233039 | 11 | 360 | 4.8 | 9.7 | 0.00 | 0.43 | 0.20 | 78 | 1013.6 |
| 20260507231546 | 11 | 360 | 6.4 | 17.7 | 0.00 | 0.43 | 0.20 | 78 | 1013.7 |
| 20260507230047 | 11 | 360 | 6.4 | 19.3 | 0.00 | 0.43 | 0.20 | 81 | 1013.5 |
| 20260507224542 | 11 | 360 | 4.8 | 17.7 | 0.00 | 0.43 | 0.20 | 82 | 1013.4 |
| 20260507223055 | 11 | 360 | 9.7 | 22.5 | 0.00 | 0.43 | 0.20 | 82 | 1013.4 |
| 20260507221539 | 11 | 360 | 4.8 | 19.3 | 0.00 | 0.43 | 0.20 | 82 | 1013.1 |
| 20260507220043 | 11 | 360 | 9.7 | 24.1 | 0.00 | 0.43 | 0.20 | 82 | 1012.9 |
| 20260507214544 | 11 | 360 | 16.1 | 27.4 | 0.00 | 0.43 | 0.20 | 81 | 1012.8 |
| 20260507213044 | 12 | 360 | 14.5 | 33.8 | 0.00 | 0.43 | 0.20 | 81 | 1012.5 |
| 20260507211547 | 13 | 13 | 9.7 | 20.9 | 0.00 | 0.43 | 0.20 | 78 | 1012.0 |
| 20260507210105 | 13 | 71 | 8.0 | 29.0 | 0.00 | 0.43 | 0.20 | 75 | 1011.7 |
| 20260507204543 | 13 | 9 | 8.0 | 17.7 | 0.00 | 0.43 | 0.20 | 76 | 1011.4 |
| 20260507203043 | 14 | 49 | 14.5 | 30.6 | 0.00 | 0.43 | 0.20 | 75 | 1011.5 |
| 20260507201543 | 14 | 86 | 8.0 | 19.3 | 0.00 | 0.43 | 0.20 | 76 | 1011.5 |
| 20260507200050 | 14 | 338 | 9.7 | 24.1 | 0.00 | 0.43 | 0.20 | 76 | 1011.3 |
| 20260507194548 | 14 | 54 | 4.8 | 20.9 | 0.00 | 0.43 | 0.20 | 77 | 1011.5 |
| 20260507193044 | 15 | 0 | 4.8 | 20.9 | 0.00 | 0.43 | 0.20 | 77 | 1011.4 |
| 20260507191547 | 15 | 5 | 8.0 | 16.1 | 0.00 | 0.43 | 0.20 | 76 | 1011.2 |
| 20260507190050 | 15 | 360 | 1.6 | 22.5 | 0.00 | 0.43 | 0.20 | 77 | 1011.4 |